Tracking 19796 objects as of 19-Jul-2019
HD Live streaming from Space Station
objects crossing your sky now

INSAT 3B

Track INSAT 3B now!
INSAT 3B is classified as:


NORAD ID: 26108
Int'l Code: 2000-016B
Perigee: 35,948.6 km
Apogee: 35,981.6 km
Inclination: 5.7 °
Period: 1,444.9 minutes
Semi major axis: 42336 km
RCS: 5.0119 m2 (large)
Launch date: March 21, 2000
Source: India (IND)
Launch site: FRENCH GUIANA (FRGUI)

Voice, data and fax transmissions.
aabbcc
Your satellite tracking list
Your tracking list is empty




NASA's NSSDC Master Catalog

Two Line Element Set (TLE):
1 26108U 00016B   19199.82364084 -.00000046 +00000-0 +00000-0 0  9999
2 26108 005.7391 062.8172 0003893 185.8726 355.2849 00.99663631026265
Source of the keplerian elements: AFSPC